Date,TemperatureHighF,TemperatureAvgF,TemperatureLowF,DewpointHighF,DewpointAvgF,DewpointLowF,HumidityHigh,HumidityAvg,HumidityLow,PressureMaxIn,PressureMinIn,WindSpeedMaxMPH,WindSpeedAvgMPH,GustSpeedMaxMPH,PrecipitationSumIn
2013-1-1,41.4,33.9,29.7,35.1,29.8,25.8,90,85,77,28.85,28.72,8,2,8,0.00
2013-1-2,45.9,33.6,24.1,36.0,28.2,21.0,91,81,64,28.72,28.57,8,1,8,0.01
2013-1-3,45.5,33.5,24.7,37.7,28.3,20.9,89,81,69,28.74,28.55,8,1,8,0.00
2013-1-4,44.6,33.5,26.1,36.5,28.8,22.3,89,83,71,28.75,28.61,4,1,4,0.00
2013-1-5,70.7,37.4,31.9,70.7,33.7,28.0,100,86,81,28.62,28.56,7,0,7,10.05
2013-1-6,43.9,40.1,37.1,39.7,36.6,33.6,90,87,82,28.67,28.57,5,1,5,0.07
2013-1-7,45.4,42.5,39.2,41.5,39.0,35.7,89,88,86,28.73,28.64,4,0,4,0.07
2013-1-8,49.0,44.6,43.4,44.2,41.2,40.1,89,88,82,28.76,28.51,9,1,9,0.07
2013-1-9,113.0,41.8,35.1,99.9,37.6,30.8,100,85,74,28.51,28.32,19,2,19,9.25
2013-1-10,37.1,35.4,33.5,33.5,31.5,29.8,90,85,76,28.58,28.42,14,1,14,0.14
2013-1-11,39.4,34.7,28.4,33.6,28.6,23.3,87,78,68,28.68,28.55,15,2,15,0.02
2013-1-12,34.0,27.7,22.7,27.0,22.4,17.7,83,80,75,28.74,28.65,7,1,7,0.00
2013-1-13,33.1,26.3,21.6,25.7,20.5,16.7,83,79,70,28.83,28.73,5,1,5,0.00
2013-1-14,37.1,26.8,19.1,28.2,21.4,14.8,86,80,66,28.92,28.82,4,1,4,0.00
2013-1-15,42.1,29.1,22.1,32.8,24.0,18.0,100,81,69,29.02,28.82,78,1,78,10.30
2013-1-16,36.7,28.4,22.7,32.9,24.8,18.6,90,86,83,29.04,28.87,3,0,3,0.00
2013-1-17,27.4,23.8,22.0,23.5,20.3,18.5,88,86,85,28.88,28.73,2,0,2,10.30
2013-1-18,45.7,29.1,20.5,37.2,24.6,16.4,89,83,71,28.76,28.65,4,0,4,0.01
2013-1-19,47.0,32.4,22.7,35.9,26.4,18.9,88,79,62,28.76,28.66,5,1,5,0.00
2013-1-20,46.3,31.6,22.0,33.6,25.3,18.0,87,78,59,28.76,28.64,5,1,5,0.01
2013-1-21,47.5,32.6,22.1,34.5,25.7,17.7,87,76,57,28.69,28.56,5,1,5,0.00
2013-1-22,44.1,34.0,24.7,34.1,27.7,19.8,84,78,66,28.60,28.36,6,1,6,0.00
2013-1-23,58.1,52.3,36.2,43.8,35.8,23.5,88,56,29,28.55,28.26,17,5,17,0.03
2013-1-24,51.7,47.2,43.7,46.4,42.3,39.2,85,83,80,28.63,28.55,7,1,7,0.00
2013-1-25,49.3,46.9,44.1,46.5,43.7,39.9,91,89,85,28.62,28.41,5,0,5,0.23
2013-1-26,47.7,41.5,37.8,44.9,36.6,33.3,91,83,72,28.53,28.41,10,2,10,0.08
2013-1-27,43.7,39.2,36.4,36.9,34.2,32.6,88,82,70,28.62,28.53,6,1,6,0.09
2013-1-28,44.3,40.6,36.7,38.4,36.5,33.3,88,85,77,28.74,28.56,9,1,9,0.04
2013-1-29,46.8,42.8,38.5,40.6,38.2,35.3,91,84,78,28.92,28.72,5,1,5,0.01
2013-1-30,43.9,41.7,39.4,38.5,37.1,35.6,87,84,80,28.98,28.86,6,1,6,0.00
2013-1-31,42.1,40.9,39.1,37.9,36.3,34.7,85,84,82,28.87,28.76,4,1,4,0.00
2013-2-1,44.5,38.5,31.5,38.5,33.9,27.8,87,83,78,28.77,28.65,6,1,6,0.00
2013-2-2,43.7,35.7,31.7,39.4,32.3,28.0,90,87,83,28.76,28.68,4,0,4,0.00
2013-2-3,42.7,35.2,31.0,38.6,32.4,28.1,91,89,85,28.76,28.64,4,1,4,0.00
2013-2-4,107.6,38.3,0.0,99.9,35.1,0.0,100,88,82,29.77,28.43,188,1,188,10.81
2013-2-5,44.8,38.7,31.9,41.2,35.6,29.0,94,89,85,28.57,28.43,10,1,10,10.81
2013-2-6,50.8,39.8,32.9,41.4,35.1,29.7,90,83,66,28.59,28.36,6,1,6,10.81
2013-2-7,46.4,40.4,36.4,37.5,34.9,32.4,89,81,65,28.47,28.37,9,2,9,0.41
2013-2-8,44.3,38.8,35.1,35.8,32.8,28.4,91,79,59,28.64,28.46,8,2,8,0.01
2013-2-9,46.4,39.6,33.1,36.2,31.8,27.9,83,74,59,28.66,28.60,7,1,7,0.01
2013-2-10,49.9,39.5,32.8,37.4,32.5,27.6,87,76,57,28.70,28.60,7,1,7,0.01
2013-2-11,40.9,35.1,28.4,35.5,30.4,23.9,87,83,80,28.83,28.67,4,1,4,0.01
2013-2-12,51.5,40.8,0.0,40.7,34.6,0.0,87,79,63,30.21,28.83,177,2,177,11.26
2013-2-13,55.8,44.9,34.4,42.8,37.2,30.1,100,75,59,28.90,28.80,7,2,7,11.26
2013-2-14,56.3,46.6,39.2,44.4,39.2,33.2,84,76,63,28.93,28.79,8,1,8,0.00
2013-2-15,63.9,45.9,32.4,44.5,36.0,28.3,88,70,46,28.82,28.64,6,2,6,0.00
2013-2-16,59.4,43.8,33.1,41.3,33.8,27.9,82,69,46,28.70,28.56,7,2,7,0.00
2013-2-17,50.0,41.0,32.2,34.3,30.8,26.1,80,68,47,28.66,28.46,6,1,6,0.00
2013-2-18,46.4,38.1,30.2,36.0,30.4,24.6,86,74,66,28.45,28.22,5,2,5,0.00
2013-2-19,43.9,38.7,34.2,35.8,32.2,28.5,84,77,65,28.38,28.08,4,1,4,0.09
2013-2-20,48.6,42.3,38.2,36.0,33.7,32.3,81,72,58,28.53,28.39,5,2,5,0.12
2013-2-21,46.3,41.7,32.0,35.2,33.9,31.5,100,74,64,28.72,28.54,92,1,92,11.48
2013-2-22,51.8,41.5,34.9,40.3,35.2,29.1,85,78,62,28.70,28.47,9,2,9,0.19
2013-2-23,45.0,39.4,35.6,36.1,33.4,30.3,86,79,64,28.83,28.57,11,1,11,0.03
2013-2-24,48.6,37.8,28.8,37.4,31.2,24.1,84,77,63,28.84,28.62,8,1,8,0.00
2013-2-25,47.9,41.9,38.5,39.4,33.8,29.3,86,73,49,28.80,28.60,11,2,11,0.04
2013-2-26,49.9,40.0,30.6,36.2,31.1,24.9,81,71,56,28.80,28.65,9,2,9,0.00
2013-2-27,53.6,43.4,31.1,39.8,33.7,25.0,80,69,50,28.77,28.69,8,1,8,0.00
2013-2-28,55.4,50.5,46.6,48.0,43.9,39.0,82,78,72,28.93,28.72,5,1,5,0.02
2013-3-1,61.9,52.6,45.0,51.2,45.7,38.6,85,78,64,28.93,28.72,8,2,8,0.00
2013-3-2,55.1,48.4,40.9,47.5,42.5,35.8,85,80,74,28.72,28.58,5,1,5,0.09
2013-3-3,54.9,48.2,37.8,44.2,40.5,31.4,87,75,52,28.61,28.50,8,2,8,0.02
2013-3-4,57.8,43.4,31.7,44.7,35.8,26.2,85,75,59,28.55,28.35,8,2,8,0.00
2013-3-5,52.4,44.8,37.8,40.2,36.5,32.2,83,73,59,28.35,28.01,14,2,14,0.00
2013-3-6,52.4,45.5,39.2,38.8,34.5,29.7,82,66,44,28.40,27.96,17,3,17,0.01
2013-3-7,53.8,40.7,30.2,37.9,31.0,23.9,82,69,46,28.43,28.33,8,1,8,0.00
2013-3-8,53.6,41.1,29.3,37.2,29.6,23.2,80,65,38,28.59,28.37,9,2,9,0.00
2013-3-9,57.6,42.6,31.0,38.7,30.1,24.0,77,63,37,28.88,28.59,10,2,10,0.01
2013-3-10,50.4,36.9,31.5,38.5,28.3,24.0,77,71,64,28.92,28.85,8,1,8,0.00
2013-3-11,64.1,56.4,47.3,45.1,40.6,35.9,69,56,48,28.78,28.63,9,3,9,0.00
2013-3-12,64.4,51.2,38.7,48.8,40.2,31.8,79,67,47,28.67,28.56,8,2,8,0.00
2013-3-13,64.8,50.1,0.0,48.8,39.8,0.0,78,68,53,30.05,28.54,166,2,166,11.89
2013-3-14,65.3,53.5,43.2,49.1,42.7,36.5,79,67,53,28.65,28.53,8,2,8,0.00
2013-3-15,65.7,53.0,42.1,45.8,40.1,34.4,75,62,44,28.66,28.55,9,2,9,0.00
2013-3-16,58.0,50.5,43.7,45.7,40.5,34.9,78,69,54,28.61,28.53,13,2,13,0.00
2013-3-17,149.0,46.9,39.6,36.1,34.0,0.0,77,62,51,28.70,0.00,8,3,8,11.50
2013-3-18,57.2,44.2,30.6,40.2,32.9,24.0,77,65,45,28.66,28.48,9,1,9,0.04
2013-3-19,58.7,51.7,45.4,45.8,40.7,35.0,74,66,57,28.50,28.23,0,0,0,0.02
2013-3-20,60.5,51.0,40.3,47.2,40.2,29.5,75,66,56,28.62,28.18,9,1,9,0.01
2013-3-21,50.2,43.0,39.1,33.9,31.4,27.0,78,65,44,28.73,28.61,6,0,6,0.00
2013-3-22,100.4,39.8,31.5,99.9,28.5,23.5,100,64,46,29.77,28.69,0,0,0,11.12
2013-3-23,54.0,40.6,27.5,32.4,26.3,20.0,73,58,37,28.74,28.57,0,0,0,0.00
2013-3-24,60.7,45.6,32.8,39.9,31.7,23.7,70,59,45,28.62,28.43,0,0,0,0.00
2013-3-25,61.6,49.8,37.6,45.3,37.9,30.4,76,64,50,28.43,28.29,0,0,0,0.07
2013-3-26,59.4,51.1,46.1,45.9,42.6,39.6,81,73,58,28.42,28.35,0,0,0,0.03
2013-3-27,69.3,51.4,42.5,69.3,44.2,37.3,100,76,64,29.01,28.31,0,0,0,12.16
2013-3-28,59.9,53.2,49.0,52.4,47.5,44.7,86,81,69,28.55,28.40,0,0,0,0.08
2013-3-29,49.3,47.3,45.9,45.9,43.5,42.5,88,87,85,28.61,28.55,0,0,0,0.01
2013-3-30,62.1,59.3,32.0,48.5,46.9,32.0,100,64,60,30.14,28.40,0,0,0,12.25
2013-3-31,59.4,55.6,0.0,52.6,49.0,0.0,86,78,64,30.04,28.40,177,0,177,12.52
2013-4-1,59.4,52.5,47.5,52.0,47.2,44.3,91,83,66,28.61,28.45,0,0,0,0.90
2013-4-2,65.2,56.1,49.5,51.9,47.3,43.4,87,73,54,28.62,28.53,0,0,0,0.24
2013-4-3,67.0,54.8,41.9,54.9,47.3,37.7,86,76,65,28.58,28.32,0,0,0,0.24
2013-4-4,69.1,58.6,49.7,52.3,46.7,40.9,82,66,49,28.42,28.20,0,0,0,0.24
2013-4-5,60.3,51.6,43.2,51.0,45.2,39.0,87,79,62,28.48,28.40,0,0,0,0.24
2013-4-6,58.7,51.9,47.2,49.4,45.4,41.2,90,79,59,28.49,28.35,0,0,0,0.24
2013-4-7,54.0,47.0,37.8,44.0,40.8,34.3,89,79,63,28.40,28.28,0,0,0,0.59
2013-4-8,52.6,43.3,36.0,40.5,36.6,32.5,89,78,59,28.67,28.39,0,0,0,0.24
2013-4-9,62.1,49.5,38.0,45.2,38.6,33.1,87,68,36,28.76,28.66,0,0,0,0.24
2013-4-10,62.8,48.8,38.9,51.5,41.3,33.5,84,75,63,28.74,28.63,0,0,0,0.07
2013-4-11,60.1,50.2,42.8,44.5,41.4,38.4,88,73,52,28.71,28.49,0,0,0,0.00
2013-4-13,50.4,45.3,32.0,33.8,32.6,31.4,100,61,54,28.78,28.44,78,3,78,14.38
2013-4-14,50.9,44.1,35.5,35.8,32.6,28.1,77,64,49,28.52,28.30,0,0,0,0.01
2013-4-15,49.9,41.6,38.7,38.2,34.3,31.1,81,75,57,28.57,28.35,2,0,2,0.24
2013-4-16,52.6,44.3,38.5,40.2,35.5,32.8,83,72,55,28.77,28.56,0,0,0,0.02
2013-4-17,58.3,47.8,35.5,40.2,35.0,29.7,82,63,40,28.86,28.77,0,0,0,0.00
2013-4-18,65.5,51.1,35.3,46.4,38.9,29.1,82,64,48,28.85,28.71,0,0,0,0.00
2013-4-19,65.0,53.3,44.5,51.3,42.5,37.2,80,68,48,28.76,28.64,0,0,0,0.00
2013-4-20,66.6,53.5,39.6,46.0,39.7,33.3,82,62,33,28.75,28.59,0,0,0,0.00
2013-4-21,69.1,54.3,38.5,47.3,40.7,31.9,78,61,42,28.70,28.58,0,0,0,0.00
2013-4-22,70.6,56.4,42.5,50.8,40.0,28.3,81,58,22,28.67,28.55,0,0,0,0.00
2013-4-23,71.3,54.3,36.4,38.9,32.4,25.3,65,45,22,28.66,28.45,0,0,0,0.00
2013-4-24,77.9,59.8,36.9,36.8,29.9,24.8,66,36,16,28.54,28.37,0,0,0,0.00
2013-4-25,77.4,59.1,39.2,45.7,36.8,26.5,64,45,28,28.58,28.42,0,0,0,0.00
2013-4-26,80.6,62.5,43.6,51.8,43.0,34.5,72,51,25,28.67,28.58,0,0,0,0.00
2013-4-27,79.6,63.2,45.4,51.4,42.2,35.0,69,48,26,28.72,28.56,0,0,0,0.00
2013-4-28,73.1,59.8,45.0,45.2,39.9,34.0,68,49,32,28.68,28.54,0,0,0,0.00
2013-4-29,67.5,57.5,46.6,50.0,42.1,33.7,74,58,40,28.62,28.46,0,0,0,0.00
2013-4-30,62.1,49.8,37.6,38.3,32.9,28.3,77,54,32,28.73,28.53,0,0,0,0.00
2013-5-1,73.3,53.5,33.1,42.7,33.8,24.6,73,50,30,28.80,28.69,0,0,0,0.00
2013-5-2,80.6,65.3,46.4,44.2,32.9,20.8,45,31,17,28.76,28.58,0,0,0,0.00
2013-5-3,81.0,64.2,44.5,47.0,41.1,32.7,65,45,28,28.66,28.44,0,0,0,0.00
2013-5-4,81.0,64.3,43.6,48.9,38.1,30.8,70,42,17,28.51,28.19,0,0,0,0.00
2013-5-5,83.5,63.8,48.4,50.9,42.8,35.1,66,48,23,28.25,28.07,0,0,0,0.01
2013-5-6,72.7,59.0,48.2,54.4,47.6,40.2,78,66,49,28.35,28.22,0,0,0,0.07
2013-5-7,107.6,64.8,0.0,56.3,54.4,0.0,76,70,61,30.03,0.00,145,1,145,14.80
2013-5-8,74.2,62.6,52.9,58.6,53.1,47.6,84,72,52,28.56,28.43,0,0,0,0.28
2013-5-9,80.6,67.8,52.7,58.5,53.1,48.3,85,61,39,28.57,28.47,0,0,0,0.00
2013-5-10,86.0,65.8,54.4,62.3,53.9,47.7,79,67,39,28.63,28.51,0,0,0,0.00
2013-5-11,87.3,68.9,58.5,65.4,55.8,50.5,78,64,41,28.64,28.45,0,0,0,0.00
2013-5-12,83.7,68.5,55.1,58.2,50.2,42.0,73,54,32,28.56,28.45,0,0,39,12.44
2013-5-13,76.1,64.0,49.9,53.5,45.6,39.3,69,52,35,28.59,28.49,0,0,0,0.00
2013-5-14,114.8,55.5,46.4,99.9,43.1,38.4,100,64,35,29.98,28.44,0,0,0,14.30
2013-5-15,70.6,56.5,51.1,66.6,42.5,39.0,100,60,47,29.06,28.45,0,0,0,15.08
2013-5-16,65.2,55.3,52.6,52.4,46.2,41.7,82,72,52,28.45,28.35,0,0,0,14.58
2013-5-17,66.2,57.4,50.2,46.6,42.9,40.9,77,60,41,28.52,28.42,0,0,0,0.05
2013-5-18,65.5,56.8,49.9,50.9,45.3,41.0,76,66,55,28.71,28.52,0,0,0,0.05
2013-5-19,70.0,59.3,49.5,47.4,44.3,40.7,76,59,41,28.78,28.63,7,0,7,0.05
2013-5-20,79.2,62.5,43.7,52.8,43.8,34.8,80,54,26,28.69,28.35,9,0,9,0.00
2013-5-21,63.7,55.1,40.3,44.4,38.6,32.2,78,55,42,28.53,28.28,18,3,18,0.10
2013-5-22,98.6,44.6,32.0,98.6,34.8,0.0,100,70,45,29.03,28.45,21,0,21,14.83
2013-5-23,61.2,51.0,41.9,45.1,39.3,35.8,86,66,44,28.49,28.42,9,0,9,14.56
2013-5-24,62.3,53.4,43.9,43.2,39.7,34.7,74,60,46,28.51,28.45,7,0,7,14.56
2013-5-25,71.3,56.5,41.0,45.7,40.8,34.0,78,58,35,28.50,28.34,8,0,8,14.56
2013-5-26,68.2,58.7,52.2,53.2,46.5,42.3,80,65,45,28.49,28.42,8,0,8,14.56
2013-5-27,66.2,57.4,51.5,55.1,49.7,42.7,84,76,65,28.47,28.27,8,0,8,14.56
2013-5-28,71.3,60.8,51.3,55.2,49.4,44.7,87,68,43,28.39,28.23,8,0,8,14.56
2013-5-29,69.8,59.8,50.9,52.0,45.2,37.4,82,60,40,28.51,28.22,12,3,12,14.56
2013-5-30,68.4,57.0,48.8,44.0,41.2,37.4,72,57,37,28.64,28.50,9,1,9,14.56
2013-5-31,76.7,60.0,41.4,49.5,41.5,33.4,78,54,26,28.69,28.56,7,0,7,14.56
2013-6-1,81.4,65.8,47.5,49.7,44.0,37.8,71,48,26,28.63,28.40,9,1,9,14.56
2013-6-2,78.1,65.7,51.8,54.2,48.5,41.6,73,55,37,28.44,28.33,9,1,9,14.56
2013-6-3,83.3,66.8,49.3,54.3,48.1,41.6,76,54,28,28.46,28.32,7,0,7,14.56
2013-6-4,88.9,71.4,51.5,55.9,49.0,41.7,73,48,23,28.46,28.32,6,0,6,14.56
2013-6-5,90.2,73.5,53.3,56.6,49.0,41.3,65,44,25,28.50,28.33,7,0,7,14.56
2013-6-6,90.7,74.5,55.8,59.0,53.1,44.6,69,49,31,28.45,28.32,10,1,10,14.56
2013-6-7,88.6,74.7,59.0,60.2,54.7,49.2,74,52,33,28.53,28.41,11,1,11,14.56
2013-6-8,91.4,74.5,57.2,58.6,52.2,46.2,73,49,24,28.49,28.35,9,1,9,14.56
2013-6-9,88.9,72.2,57.2,53.4,47.5,38.1,62,43,26,28.43,28.26,5,1,5,14.56
2013-6-10,81.2,67.2,51.1,49.3,42.4,35.6,58,42,26,28.35,28.22,8,1,8,14.56
2013-6-11,68.4,60.0,51.8,46.2,42.9,37.5,69,54,42,28.53,28.35,7,0,7,14.56
2013-6-12,68.8,58.7,42.8,45.6,40.8,34.1,74,53,38,28.59,28.50,7,1,7,14.56
2013-6-13,69.8,62.3,47.9,60.8,41.7,35.9,100,48,38,28.70,28.59,11,1,11,16.02
2013-6-14,79.0,59.7,44.1,48.8,42.3,35.3,74,55,25,28.69,28.38,9,1,9,0.00
2013-6-15,60.1,60.1,60.1,46.6,46.6,46.6,61,61,61,28.38,28.38,0,0,0,0.00
2013-7-3,141.8,122.1,82.8,57.4,19.1,0.0,42,14,42,28.45,0.00,0,0,0,15.69
2013-7-10,95.6,87.5,73.1,60.8,56.6,53.2,50,36,25,28.43,28.27,9,2,9,15.69
2013-7-11,88.2,75.5,62.5,59.0,52.3,45.4,67,46,26,28.39,28.27,9,1,9,15.69
2013-7-12,84.6,70.8,54.9,53.2,46.2,41.4,65,43,22,28.45,28.33,11,1,11,15.69
2013-7-13,75.4,60.2,0.0,48.0,42.7,0.0,58,52,38,29.63,28.44,69,1,69,16.29
2013-7-14,68.8,59.7,57.1,46.0,45.4,43.9,63,59,44,28.47,28.45,0,0,0,0.00
2013-7-15,58.3,58.3,58.3,45.8,45.8,45.8,63,63,63,28.47,28.47,0,0,0,0.00
2013-7-16,58.3,58.3,58.3,45.8,45.8,45.8,63,63,63,28.47,28.47,0,0,0,0.00
2013-7-17,58.3,58.3,58.3,45.8,45.8,45.8,63,63,63,28.47,28.47,0,0,0,0.00
2013-7-18,58.3,58.3,58.3,45.8,45.8,45.8,63,63,63,28.47,28.47,0,0,0,0.00
2013-7-19,76.1,61.5,58.3,48.7,46.0,45.1,63,58,37,28.47,28.42,1,0,1,0.00
2013-7-20,95.2,73.5,60.3,71.8,52.3,43.5,86,49,28,28.44,28.27,6,0,6,0.00
2013-7-21,96.3,76.4,58.7,60.1,51.5,45.7,64,44,25,28.35,28.22,5,0,5,0.00
2013-7-22,95.8,76.8,57.8,55.8,48.6,42.6,58,39,23,28.42,28.30,2,0,2,0.00
2013-7-23,92.2,75.1,59.0,59.0,49.8,43.2,61,42,27,28.45,28.37,5,0,5,0.00
2013-7-24,96.7,81.9,68.9,59.3,55.3,51.7,62,42,24,28.44,28.37,5,1,5,0.00
2013-7-25,77.0,71.1,66.8,56.1,52.2,50.1,58,52,43,28.46,28.41,2,0,2,0.00
2013-7-29,87.7,75.5,32.0,51.0,46.8,0.0,59,37,23,29.03,28.31,46,1,46,14.76
2013-7-30,86.8,71.1,55.3,55.0,48.2,41.0,62,46,28,28.53,28.44,6,0,6,0.00
2013-7-31,84.2,72.6,63.4,57.0,52.9,49.8,65,51,33,28.51,28.39,8,1,8,0.00
2013-8-1,72.5,63.8,56.3,52.5,49.7,44.7,71,61,48,28.54,28.45,9,0,9,0.00
2013-8-2,81.9,65.1,48.4,53.0,47.1,40.5,77,55,32,28.55,28.40,7,0,7,0.00
2013-8-3,88.4,71.1,53.3,55.2,49.2,42.3,71,48,25,28.50,28.32,8,0,8,0.00
2013-8-4,92.0,74.3,56.9,55.7,50.4,44.2,68,45,24,28.44,28.29,5,0,5,0.00
2013-8-5,92.5,75.6,59.0,56.5,52.0,46.8,67,46,26,28.44,28.30,8,0,8,0.00
2013-8-6,94.5,76.4,59.8,63.8,53.3,47.6,68,47,25,28.43,28.28,8,0,8,0.00
2013-8-7,86.2,73.1,32.0,61.5,56.4,0.0,73,57,37,29.13,28.36,48,1,48,13.78
2013-8-8,81.0,67.7,55.3,63.7,55.5,48.6,80,66,51,28.46,28.31,3,0,3,0.04
2013-8-9,81.5,68.1,57.6,64.3,54.9,49.0,76,64,47,28.39,28.30,12,0,12,0.04
2013-8-10,68.4,56.8,0.0,53.5,46.1,0.0,100,69,59,28.50,1.57,143,14,143,16.35
2013-8-11,83.2,67.0,52.2,57.8,52.3,45.6,81,62,37,28.51,28.36,9,0,9,0.00
2013-8-12,86.8,70.2,55.3,59.4,53.0,47.1,76,56,32,28.47,28.35,8,0,8,0.01
2013-8-13,90.4,72.8,56.5,59.9,53.3,47.1,74,52,33,28.51,28.33,8,0,8,0.00
2013-8-14,89.5,72.8,56.7,55.3,50.5,45.5,68,48,26,28.45,28.31,6,0,6,0.00
2013-8-15,66.2,63.9,61.6,47.0,46.1,45.3,56,52,50,28.41,28.40,4,1,4,0.00
2013-8-22,79.9,68.3,0.0,61.5,54.9,0.0,78,62,49,29.91,28.34,152,2,152,16.43
2013-8-23,84.6,68.1,51.5,58.0,52.8,44.9,81,61,37,28.39,28.25,8,0,8,0.00
2013-8-24,83.5,69.0,54.7,56.0,51.9,46.9,77,57,32,28.33,28.23,9,1,9,0.00
2013-8-25,72.2,65.7,60.8,61.3,56.3,51.2,84,72,58,28.39,28.30,9,0,9,0.28
2013-8-26,79.6,67.6,57.2,60.5,54.5,49.1,85,65,41,28.41,28.34,7,0,7,0.00
2013-8-27,85.3,67.9,52.7,57.3,51.7,45.8,79,58,37,28.41,28.22,7,0,7,0.00
2013-8-28,86.8,70.1,54.9,57.4,52.7,46.2,75,56,34,28.35,28.26,8,0,8,0.00
2013-8-29,86.2,72.0,59.9,60.7,55.6,51.2,77,58,35,28.54,28.33,13,1,13,0.00
2013-8-30,85.9,70.3,58.1,61.5,56.2,50.8,78,63,40,28.57,28.39,7,0,7,0.00
2013-8-31,91.4,73.2,56.7,62.4,56.1,49.3,78,57,34,28.45,28.24,9,0,9,0.00
2013-9-1,85.3,70.6,56.5,56.7,52.3,47.5,74,54,34,28.36,28.23,8,0,8,0.00
2013-9-2,80.8,68.2,55.6,57.8,52.7,47.5,77,59,42,28.37,28.27,10,1,10,0.00
2013-9-3,81.0,67.3,55.6,55.2,51.1,47.1,75,57,39,28.43,28.34,9,1,9,0.00
2013-9-4,77.8,65.7,52.7,56.7,51.6,44.3,76,61,46,28.48,28.39,9,0,9,0.00
2013-9-5,73.4,64.1,58.9,56.7,53.5,50.7,77,69,52,28.57,28.41,13,0,13,0.00
2013-9-6,76.7,63.4,52.4,55.4,50.3,46.4,83,64,36,28.64,28.45,9,0,9,0.01
2013-9-7,86.6,67.7,51.7,57.8,50.4,43.9,79,57,28,28.49,28.32,6,0,6,0.00
2013-9-8,88.4,70.3,53.5,59.2,50.9,44.3,73,52,29,28.45,28.32,5,0,5,0.00
2013-9-9,90.5,72.2,55.1,58.3,52.0,45.5,77,52,22,28.44,28.26,6,0,6,0.00
2013-9-10,95.4,74.3,56.2,59.3,51.6,45.2,72,48,24,28.33,28.19,5,0,5,0.00
2013-9-11,96.8,74.3,0.0,55.6,47.3,0.0,54,40,19,29.71,28.27,107,1,107,16.72
2013-9-12,93.2,75.7,61.4,58.2,53.6,48.7,65,48,29,28.42,28.28,6,0,6,0.00
2013-9-13,91.8,74.0,59.4,59.6,53.2,48.3,70,50,30,28.38,28.20,5,0,5,0.00
2013-9-14,92.3,73.6,57.1,59.9,52.5,46.2,69,49,29,28.28,28.09,6,0,6,0.00
2013-9-15,82.1,69.3,56.5,56.0,50.1,45.3,68,52,32,28.35,28.16,9,1,9,0.00
2013-9-16,77.0,64.6,52.0,54.4,49.2,43.6,75,59,39,28.40,28.27,7,0,7,0.00
2013-9-17,64.3,58.9,53.1,55.0,50.4,46.2,82,74,60,28.48,28.26,13,0,13,0.37
2013-9-18,70.7,58.1,49.5,53.6,49.2,44.6,87,73,50,28.53,28.38,7,0,7,0.00
2013-9-19,79.7,60.0,43.9,53.2,45.6,38.5,82,62,31,28.42,28.23,6,0,6,0.00
2013-9-20,73.4,57.9,47.0,52.0,45.3,38.7,82,64,38,28.25,28.09,11,1,11,0.21
2013-9-21,63.4,55.8,50.8,54.5,49.2,45.5,88,79,59,28.30,28.12,8,0,8,0.12
2013-9-22,65.7,57.1,49.1,50.8,48.0,44.2,86,73,57,28.38,28.29,8,1,8,0.01
2013-12-15,32.0,27.5,26.6,26.8,25.0,0.0,94,91,93,29.44,28.84,45,1,45,19.37
2013-12-16,45.4,28.3,20.5,41.0,25.9,18.5,94,91,75,28.85,28.67,0,0,0,0.00
2013-12-17,45.7,28.8,20.2,39.2,25.7,17.5,93,88,71,28.68,28.56,1,0,1,0.01
2013-12-18,37.4,29.5,21.8,34.6,27.2,19.6,93,91,87,28.58,28.37,2,0,2,0.00
2013-12-19,44.6,33.1,25.9,34.0,27.3,22.2,93,80,57,28.60,28.41,2,0,2,0.01
2013-12-20,39.2,32.5,24.3,32.8,28.1,21.3,91,84,70,28.60,28.46,4,0,4,0.01
2013-12-21,40.3,34.7,33.7,36.7,32.4,31.2,92,91,88,28.60,28.48,0,0,0,0.00
2013-12-22,55.8,45.0,36.0,45.1,39.8,33.1,100,83,65,28.82,28.76,2,0,2,21.13